Location: Marcé
(47.5801°N, 0.3280°W)
Time: 08:43:54
(UTC+01:00)

Tiros 1 despin weight - Pass Details

Date: 12 December 2021
Orbit: 592 x 641 km, 48.2° (Epoch: 25 January)

Event Time Altitude Azimuth Distance (km) Brightness Sun altitude
Rises 11:44:48 0° 241° (WSW) 2,862 ? 17.6°
Reaches altitude 10° 11:47:08 10° 237° (WSW) 1,951 ? 17.7°
Maximum altitude 11:51:32 60° 158° (SSE) 688 ? 17.9°
Drops below altitude 10° 11:55:54 10° 79° (E) 1,933 ? 18.1°
Sets 11:58:12 0° 76° (ENE) 2,832 ? 18.2°
